Location: ????????
(56.1167°N, 38.6333°E)
Time: 13:59:23
(UTC+00:00)

ATLAS CENTAUR R/B - Visible Passes

Search period start: 14 February 2026 00:00
Search period end: 24 February 2026 00:00
Orbit: 309 x 355 km, 64.6° (Epoch: 13 February)

Date Brightness Start Highest point End Pass type
(mag) Time Alt. Az. Time Alt. Az. Time Alt. Az.
14 Feb 2.0 15:49:19 10° NW 15:51:38 21° NNE 15:52:30 18° NE visible
14 Feb 3.2 17:22:51 10° NW 17:23:42 18° NW 17:23:42 18° NW visible
15 Feb 1.3 16:08:35 10° NW 16:11:12 30° NNE 16:11:32 30° NE visible
15 Feb 3.8 17:42:16 10° WNW 17:42:42 13° WNW 17:42:42 13° WNW visible
16 Feb 0.5 16:27:28 10° NW 16:30:14 55° NNE 16:30:14 55° NNE visible
17 Feb 1.7 15:12:34 10° NW 15:14:59 24° NNE 15:17:23 10° E visible
17 Feb 0.7 16:46:03 10° NW 16:48:38 62° W 16:48:38 62° W visible
18 Feb 1.0 15:30:42 10° NW 15:33:24 38° NNE 15:35:39 13° E visible
18 Feb 2.2 17:04:27 10° WNW 17:06:46 28° WSW 17:06:46 28° WSW visible
19 Feb 0.2 15:48:29 10° NW 15:51:18 76° NE 15:53:32 14° SE visible
19 Feb 3.3 17:23:01 10° W 17:24:29 13° WSW 17:24:39 13° SW visible
20 Feb 1.2 16:06:00 10° WNW 16:08:43 47° SW 16:11:12 11° SSE visible
21 Feb 2.8 16:23:24 10° WNW 16:25:37 21° SW 16:27:47 10° S visible
22 Feb 3.8 16:41:36 10° WSW 16:42:00 10° WSW 16:42:24 10° SW visible
23 Feb 2.0 15:22:41 10° WNW 15:25:16 36° SW 15:27:48 10° SSE visible
